STARLINK-34673, 65090

Orbit data source: Space-Track

STARLINK-34673, 65090 is a payload satellite owned by SpaceX/Seattle (US) in LEO that was launched on Mon, 04 Aug 2025 UTC via an FALCON 9 launch vehicle from the Air Force Eastern Test Range (AFETR). Payload-class satellites include a variety of spacecraft equipped with specific instruments for various scientific and technological missions. These include communications satellites like Starlink; space stations such as the ISS; scientific satellites like the Hubble; Earth observation satellites from companies like Planet Labs, Umbra, and HawkEye 360; GPS; miniature CubeSats for education and research; and military/defense satellites.

Loading next visibility...
Identifier
65090, 2025-167N
Orbit
LEO
Country
Flag of USUS
Related business
Manufacturer
SpaceX/Seattle
Mission
Operational Commercial Communications
Bus & Motor
STARLINK V2MO, Unknown motor
Mass
575 kg wet, ~530 kg dry
Launch date (UTC)
2025-08-04 (11 months ago)
Launch vehicle
FALCON 9
Launch site
Air Force Eastern Test Range (AFETR)
Object type
Payload
Rocket body
Debris
Shape & HBR
Box + 2 Pan, 17.7 m
Radar Cross Section
36.964 m², Large (>1 m²)

Expand to show TLE details & history
Last TLE update: 6 hours ago

TLE from 6 hours ago
0 STARLINK-34673
1 65090U 25167N   26174.93724776  .00012418  00000-0  43063-3 0  9991
2 65090  53.1582 253.3780 0000886 333.5067  26.5889 15.30204707 49744
Epoch: 2026-06-23T22:29Z
TLE epoch observation values (Epoch: 2026-06-23T22:29:38.206Z)
Latitude
0.00003°
Longitude
3.86718°
Altitude
475.558 km
Speed
7.63 km/s
True Right ascension
16h 53m 30s
True Declination
0° 00' 00"
Sunlit
Object was in full shadow at epoch
Visualization orbit readout
Latitude
Unknown
Longitude
Unknown
Altitude
Unknown
Speed
Unknown
Apparent Right ascension
Unknown
Apparent Declination
Unknown
Sunlit
N/A
Visualization observer readout
Local Sidereal Time
15:18:42
Azimuth
Unknown
Elevation
Unknown
Doppler factor
Unknown
Orbital elements
Apogee altitude
476.065 km
Perigee altitude
474.851 km
Semi-major axis
6,853.595 km
Eccentricity
0.00009
Inclination
53.1582°
RAAN
253.378°
Arg. of periapsis
333.5067°
True anomaly
26.59344°
Mean anomaly
26.5889°
Eccentric anomaly
26.59117°
Mean motion
3.8253 °/min
Orbital period
94.11 mins
BSTAR
0.00043063
Loading maneuver chart data...
Computing Atmospheric mass density...
Loading historical data...
Loading historical data...
Loading historical data...
Loading historical data...
Loading historical data...
Loading historical data...
Loading historical data...

Documentation

Showing up to 5 results
|